Weather History for Billings, MT

Change the Weather History Date:

Monday, October 14, 2013

  Actual Average Record
Temperature  
Mean Temperature 41 °F 49 °F  
Max Temperature 46 °F 60 °F 86 °F (1958)
Min Temperature 36 °F 38 °F 18 °F (1969)
Degree Days  
Heating Degree Days 24 16  
Month to date heating degree days 271 194  
Since 1 July heating degree days 385 423  
Cooling Degree Days 0 0  
Month to date cooling degree days 0 0  
Year to date cooling degree days 840 633  
Moisture  
Dew Point 33 °F    
Average Humidity 75    
Maximum Humidity 100    
Minimum Humidity 49    
Precipitation  
Precipitation 0.30 in 0.04 in 0.30 in (2004)
Month to date precipitation 2.19 0.61  
Year to date precipitation 14.00 11.96  
Snow  
Snow 0.00 in 0.10 in 1.00 in (2001)
Month to date snowfall 0.3 1.6  
Since 1 July snowfall 0.3 2.7  
Since 1 September snowfall 0.3 2.7  
Snow Depth 0.00 in    
Sea Level Pressure  
Sea Level Pressure 30.33 in    
Wind  
Wind Speed 12 mph (North)    
Max Wind Speed 21 mph    
Max Gust Speed 26 mph    
Visibility 9 miles    
Events Rain , Snow    
T = Trace of Precipitation, MM = Missing Value Source: NWS Daily Summary

Daily Weather History Graph

Daily Weather History Graph

Search for Another Location

Airport:

Trip Planner

Search our weather history database for the weather conditions in past years. The results will help you decide how hot, cold, wet, or windy it might be!

Date:

Astronomy

Oct. 14, 2013 Rise Set
Actual Time 7:29 AM MDT 6:29 PM MDT
Civil Twilight 6:59 AM MDT 6:59 PM MDT
Nautical Twilight 6:25 AM MDT 7:33 PM MDT
Astronomical Twilight 5:50 AM MDT 8:08 PM MDT
Moon 4:12 PM MDT (10/14) 2:36 AM MDT (10/14)
Length of Visible Light 11h 59m
Length of Day
10h 59m
Waxing Gibbous, 80% of the Moon is Illuminated
Oct 14
Waxing Gibbous
Oct 18
Full
Oct 26
Last Quarter
Nov 3
New
Nov 9
First Quarter

Hourly Weather History & Observations

Time (MDT) Temp. Windchill Dew Point Humidity Pressure Visibility Wind Dir Wind Speed Gust Speed Precip Events Conditions
12:53 AM 39.0 °F 30.3 °F 37.0 °F 93% 30.19 in 5.0 mi NNE 16.1 mph - 0.01 in Rain Light Rain
1:53 AM 37.9 °F 29.6 °F 37.0 °F 97% 30.21 in 6.0 mi North 13.8 mph - 0.02 in Rain Light Rain
2:53 AM 37.9 °F 28.9 °F 36.0 °F 93% 30.22 in 10.0 mi North 16.1 mph - 0.00 in Rain Light Rain
3:53 AM 37.9 °F 29.6 °F 36.0 °F 93% 30.22 in 10.0 mi North 13.8 mph - 0.02 in Rain Light Rain
4:53 AM 37.0 °F 28.1 °F 35.1 °F 93% 30.23 in 8.0 mi North 15.0 mph - 0.02 in Rain Light Rain
5:53 AM 37.0 °F 27.4 °F 35.1 °F 93% 30.25 in 9.0 mi North 17.3 mph - 0.04 in Rain Light Rain
6:53 AM 36.0 °F 26.0 °F 34.0 °F 93% 30.27 in 10.0 mi North 17.3 mph - 0.03 in Rain , Snow Light Rain
7:53 AM 36.0 °F 27.5 °F 34.0 °F 93% 30.30 in 8.0 mi North 12.7 mph - 0.04 in Rain Light Rain
8:53 AM 37.0 °F 28.5 °F 35.1 °F 93% 30.32 in 7.0 mi North 13.8 mph - 0.04 in Rain Light Rain
9:53 AM 37.0 °F 27.4 °F 35.1 °F 93% 30.34 in 7.0 mi NNE 17.3 mph - 0.03 in Rain Light Rain
10:53 AM 37.0 °F 27.7 °F 35.1 °F 93% 30.36 in 7.0 mi North 16.1 mph - 0.03 in Rain Light Rain
11:25 AM 37.0 °F 28.9 °F 35.1 °F 93% 30.30 in 9.0 mi North 12.7 mph - 0.02 in Rain Light Rain
11:53 AM 37.9 °F 30.0 °F 35.1 °F 89% 30.37 in 10.0 mi North 12.7 mph - 0.03 in Rain Light Rain
12:19 PM 39.0 °F 32.3 °F 35.1 °F 86% 30.31 in 10.0 mi North 10.4 mph - 0.00 in   Overcast
12:53 PM 41.0 °F 34.3 °F 35.1 °F 79% 30.36 in 10.0 mi North 11.5 mph - 0.00 in   Overcast
1:53 PM 44.1 °F 36.8 °F 32.0 °F 63% 30.35 in 10.0 mi North 16.1 mph - N/A   Mostly Cloudy
2:53 PM 45.0 °F 38.5 °F 30.0 °F 56% 30.35 in 10.0 mi NNE 13.8 mph 21.9 mph N/A   Mostly Cloudy
3:53 PM 45.0 °F 38.9 °F 27.0 °F 49% 30.35 in 10.0 mi NNE 12.7 mph - N/A   Mostly Cloudy
5:53 PM 44.1 °F 39.5 °F 28.9 °F 55% 30.38 in 10.0 mi North 8.1 mph - N/A   Overcast
6:53 PM 43.0 °F 38.2 °F 28.0 °F 56% 30.40 in 10.0 mi North 8.1 mph - N/A   Overcast
7:53 PM 43.0 °F 37.2 °F 27.0 °F 53% 30.41 in 10.0 mi North 10.4 mph - N/A   Overcast
8:53 PM 41.0 °F 34.7 °F 32.0 °F 70% 30.43 in 10.0 mi NW 10.4 mph - N/A   Overcast
9:53 PM 39.9 °F 32.9 °F 33.1 °F 77% 30.43 in 10.0 mi NW 11.5 mph - N/A   Overcast
10:53 PM 39.0 °F 31.8 °F 33.1 °F 79% 30.45 in 10.0 mi NW 11.5 mph - N/A   Overcast
11:53 PM 37.9 °F - 32.0 °F 79% 30.45 in 10.0 mi Calm Calm - N/A   Overcast